الصفحة الرئيسية
METAR-TAF:

METAR-TAF

مطار :

Akron, كولورادو, الولايات المتحدة

دائرة عرض: 40-10-28N, خط طول: 103-12-52W, ارتفاع: 1431 متر

مراقبة الطقس الحالي

تاريخ ووقت الإصدار 20 دقيقة قبل الساعة 22:53UTC
ريح 13 عقدة من الشمال الغربي
درجة الحرارة 7°درجة مئوية
الرطوبة 26%
ضغط 1026 hPa
الرؤية: 16.1 كم
سماء صافية

METAR: KAKO 152253Z AUTO 32013KT 10SM CLR 07/M11 A3030 RMK AO2 SLP287 T00721106

زمن: 17:13 (23:13 UTC)


TAF: مفقودة

أرصاد الطقس والتوقعات من أكثر من 4000 مطار (تقارير الطقس للمطار METAR والتنبؤ بالطقس بالمطارTAF).

المحطات المتاحة هي النقط الصفراء والحمراء على الخريطة.

حرك المؤشر فوق النقطة لمعرفة اسم المحطة.

ثم انقر لمعرفة أرصاد وتوقعات الطقس.

لتغيير الخارطة: اضغط على الأزرار الخضراء مع رمز الصليب الأسود للتكبير. على الزر الأخضر مع شرطة للتصغير، أو على الأسهم الخضراء للخرائط المجاورة.


METAR-TAF: